Regional Weather Roundup
Issued by NWS

Home | Current Version | Previous Version | Text Only | Print | Product List | Glossary Off
Versions: 1 2 3 4 5 6 7 8 9 10 11 12 13 14 15 16 17 18 19 20 21 22 23 24 25 26 27 28 29 30 31 32 33 34 35 36 37 38 39 40 41 42 43 44 45 46 47 48 49 50

000
ASUS43 KIND 281159
RWRIN

WEATHER ROUNDUP FOR INDIANA
NATIONAL WEATHER SERVICE INDIANAPOLIS IN
800 AM EDT SUN AUG 28 2016

NOTE: "FAIR" INDICATES FEW OR NO CLOUDS BELOW 12,000 FEET WITH NO
SIGNIFICANT WEATHER AND/OR OBSTRUCTIONS TO VISIBILITY.

* - STATION DOES NOT REPORT WEATHER SUCH AS PRECIPITATION OR FOG.

+ - STATION NOT QUALITY CONTROLLED BY THE NATIONAL WEATHER SERVICE.
    USE DATA WITH CAUTION...ESPECIALLY DEWPOINT AND RELATIVE
    HUMIDITY OBSERVATIONS.

INZ001>003-010>013-019-020-281300-
NORTHWEST INDIANA

CITY           SKY/WX    TMP DP  RH WIND       PRES   REMARKS
GARY /AIRPORT/ MOCLDY    72  72 100 CALM      30.17R
KNOX *+        CLOUDY    72  59  64 S5        30.17R
MONTICELLO +   CLEAR     69  65  88 CALM      30.17R FOG
6HR MIN TEMP:  69; 6HR MAX TEMP:  73;


$$

LMZ046-743>745-281300-
SOUTHERN LAKE MICHIGAN

STATION/POSITION TIME  TEMP    WIND        PRES    WAVE
                       AIR SEA DIR/SP/G            HT
                 (UTC) (F)     (DEG/KT/KT) (MB)    (FT)
BURNS HARBOR     1100   73      CALM  /  8 1021.3R
MICHIGAN CITY    1100   73     200/  4/  4   N/A
5NW MICH CITY    1100   75 76  260/  4/  6   N/A     0

$$

INZ004-005-014>016-021>024-281300-
NORTH CENTRAL INDIANA

CITY           SKY/WX    TMP DP  RH WIND       PRES   REMARKS
GOSHEN         PTCLDY    73  69  87 W3        30.18R
6HR MIN TEMP:  71; 6HR MAX TEMP:  74;

SOUTH BEND     MOCLDY    72  71  97 CALM      30.18R
6HR MIN TEMP:  71; 6HR MAX TEMP:  74;


$$

INZ006>009-017-018-025>027-281300-
NORTHEAST INDIANA

CITY           SKY/WX    TMP DP  RH WIND       PRES   REMARKS
ANGOLA *+      CLEAR     72  63  73 CALM      30.19R
FORT WAYNE     CLOUDY    68  67  96 CALM      30.20R FOG
6HR MIN TEMP:  66; 6HR MAX TEMP:  70;


$$

INZ028-029-035-036-043>045-051>053-281300-
WEST CENTRAL INDIANA

CITY           SKY/WX    TMP DP  RH WIND       PRES   REMARKS
CRAWFORDSVL +  FOG       65  65 100 CALM      30.19R VSB 3/4
6HR MIN TEMP:  65; 6HR MAX TEMP:  70;

LAFAYETTE      CLEAR     69  69 100 CALM      30.17R
6HR MIN TEMP:  68; 6HR MAX TEMP:  72;

TERRE HAUTE    FOG       70  68  93 CALM      30.17R VSB 1
6HR MIN TEMP:  69; 6HR MAX TEMP:  73;


$$

INZ030>032-037>040-046>048-054>057-064-065-281300-
CENTRAL INDIANA

CITY           SKY/WX    TMP DP  RH WIND       PRES   REMARKS
INDIANAPOLIS   PTCLDY    73  71  93 SE5       30.18R
6HR MIN TEMP:  72; 6HR MAX TEMP:  75;

-EAGLE CREEK   PTCLDY    73  71  93 E3        30.18R
6HR MIN TEMP:  71; 6HR MAX TEMP:  76;

KOKOMO *+      CLOUDY    70  70 100 SE3       30.20R VSB 3/4
6HR MIN TEMP:  66; 6HR MAX TEMP:  72;

MT COMFORT *+  PTCLDY    68  68 100 CALM      30.20R
SHELBYVILLE    CLEAR     71  68  90 E3        30.19R
6HR MIN TEMP:  70; 6HR MAX TEMP:  74;


$$

INZ033-034-041-042-049-050-058-059-281300-
EAST CENTRAL INDIANA

CITY           SKY/WX    TMP DP  RH WIND       PRES   REMARKS
MUNCIE         PTCLDY    71  69  93 SE3       30.20R
6HR MIN TEMP:  69; 6HR MAX TEMP:  75;


$$

INZ060-061-067>069-081>083-085>088-281300-
SOUTHWEST INDIANA

CITY           SKY/WX    TMP DP  RH WIND       PRES   REMARKS
EVANSVILLE     CLEAR     75  73  93 CALM      30.15R FOG
6HR MIN TEMP:  73; 6HR MAX TEMP:  78;

HUNTINGBURG *+ CLEAR     73  70  88 CALM      30.16R
6HR MIN TEMP:  72; 6HR MAX TEMP:  75;


$$

INZ062-063-066-070>080-084-089>092-281300-
SOUTH CENTRAL AND SOUTHEAST INDIANA

CITY           SKY/WX    TMP DP  RH WIND       PRES   REMARKS
BLOOMINGTON    CLEAR     73  70  90 SE6       30.18R FOG
6HR MIN TEMP:  69; 6HR MAX TEMP:  76;

MADISON *+     CLEAR     72  70  94 CALM      30.20R

$$





USA.gov is the U.S. government's official web portal to all federal, state and local government web resources and services.